Location: ??
(34.7232°N, 135.8448°E)
Time: 02:02:20
(UTC+00:00)

Daily predictions for brighter satellites

Satellite Brightness Start Highest point End
(mag) Time Altitude Azimuth Time Altitude Azimuth Time Altitude Azimuth
Cosmos 1867 4.3 08:14:37 10° SW 08:19:57 57° WNW 08:25:21 10° NNE
Cosmos 1842 Rocket 4.0 08:16:14 10° SSW 08:20:40 68° W 08:25:09 10° N
Genesis I 3.7 08:18:35 10° SW 08:22:33 65° WNW 08:26:34 10° NNE
Cosmos 1725 Rocket 4.3 08:21:12 10° N 08:27:32 78° W 08:33:49 10° S
NOAA 12 4.4 08:24:46 10° SE 08:29:50 47° ENE 08:34:56 10° N
Cosmos 1356 Rocket 4.0 08:27:04 10° SSE 08:30:46 34° E 08:34:32 10° NNE
AQUARIUS 4.1 08:26:33 10° SSE 08:31:02 76° ENE 08:35:31 10° N
Lacrosse 4 Rocket 2.7 08:31:28 10° SSE 08:34:38 22° ESE 08:37:24 12° ENE
SKYMED 2 4.1 08:30:57 10° NNE 08:35:02 39° E 08:39:05 10° SSE
Cosmos 1656 3.9 08:31:04 10° S 08:36:25 48° ESE 08:41:42 10° NNE
Cosmos 773 Rocket 4.0 08:32:00 10° SSW 08:37:08 87° WNW 08:42:20 10° NNE
Cosmos 1437 3.7 08:35:19 10° NNW 08:38:18 49° W 08:41:16 10° S
CZ-3 Stage 3 2.8 08:37:13 10° WSW 08:39:45 27° S 08:41:19 11° ESE
Cosmos 2219 3.5 08:37:37 10° N 08:42:59 44° ENE 08:48:19 10° SE
Cosmos 1743 Rocket 4.1 08:42:41 10° NNW 08:46:59 63° W 08:51:17 10° S
Cosmos 1805 Rocket 3.8 08:43:28 10° N 08:47:39 44° E 08:51:49 10° SSE
USA 229 DEB 3.7 08:42:13 10° SSW 08:48:43 84° WNW 08:55:31 10° NNE
USA 229 3.7 08:42:22 10° SSW 08:48:51 85° WNW 08:55:37 10° NNE
Cosmos 1538 Rocket 4.0 08:44:25 10° SSW 08:49:38 89° W 08:54:57 10° NNE
SMAP 3.8 08:45:43 10° S 08:50:17 58° W 08:54:53 10° NNW
FengYun 1-2 T 4.4 08:47:38 10° SE 08:52:55 47° ENE 08:58:11 10° N
NOSS 3-1 (A) 3.2 08:48:56 10° SSW 08:54:08 59° ESE 08:59:45 11° NE
CSL-04 Rocket 4.2 08:50:52 10° SE 08:55:39 34° ENE 09:00:24 10° N
NOSS 3-1 (C) 3.3 08:50:28 10° SW 08:55:48 80° WNW 09:01:51 10° NNE
CZ-4 R/B 1.9 08:52:13 10° SE 08:56:06 37° ENE 08:59:56 10° N
NOSS 2-3 (D) 4.4 08:52:52 10° S 08:56:36 31° ESE 08:58:39 21° ENE
Cosmos 1980 Rocket 3.4 08:54:31 10° SSE 08:58:36 21° E 08:59:45 20° E
Cosmos 1238 Rocket 3.6 08:57:32 10° NNW 09:01:47 53° W 09:05:16 10° S
PSLV R/B 4.4 09:00:00 10° WNW 09:02:01 20° N 09:02:31 19° N
Cosmos 1869 3.7 08:59:11 10° SSW 09:03:07 66° W 09:07:03 10° N
Cosmos 2227 Rocket 2.5 09:00:38 10° N 09:05:59 41° ENE 09:11:17 10° SE
Cosmos 2297 Rocket 2.4 09:01:07 10° N 09:06:33 46° ENE 09:11:56 10° SE
SL-24 R/B - RUBIN 2 4.5 09:00:04 10° NNW 09:06:34 73° ENE 09:13:14 10° SE
ERBS 2.3 09:08:46 10° SW 09:12:04 76° NW 09:13:28 32° NNE
Cosmos 2034 Rocket 4.4 09:06:21 10° N 09:12:15 39° ENE 09:18:08 10° SSE
OE (NEXTSAT) 4.2 09:10:07 10° NW 09:13:36 77° NNE 09:14:44 39° ESE
Cosmos 2369 3.7 09:08:06 10° S 09:13:39 63° ESE 09:18:30 14° NNE
Cosmos 1633 Rocket 3.4 09:14:43 10° N 09:18:53 41° E 09:23:03 10° SSE
Envisat 3.3 09:16:07 10° S 09:21:09 67° W 09:26:13 10° NNW
COSMO-SKYMED 1 3.3 09:18:47 10° N 09:23:01 53° WNW 09:27:14 10° SSW
Cosmos 2360 4.5 09:18:41 10° S 09:24:01 44° ESE 09:26:01 32° ENE
Tsikada Rocket 4.2 09:19:35 10° SSE 09:25:32 45° E 09:31:34 10° NNE
Cosmos 1666 Rocket 3.4 09:23:52 10° N 09:28:13 68° E 09:32:31 10° SSE
Cosmos 1328 Rocket 3.5 09:25:14 10° S 09:29:36 62° E 09:31:30 32° NNE
Cosmos 2082 4.0 09:26:42 10° N 09:32:01 42° ENE 09:32:35 40° E
Meteor 2-11 Rocket 4.5 09:26:49 10° N 09:32:48 55° E 09:38:46 10° SSE
Cosmos 2278 3.6 09:28:45 10° S 09:34:21 69° ESE 09:37:17 29° NNE
NOSS 2-3 (C) 3.4 09:30:14 10° SSW 09:34:27 86° ESE 09:35:51 44° NE
Sich 1 3.3 09:31:07 10° NNW 09:35:26 68° W 09:39:46 10° S
Cosmos 1633 2.4 09:31:55 10° N 09:35:35 86° W 09:39:12 10° S
Cosmos 1816 Rocket 4.5 09:30:01 10° S 09:36:11 60° E 09:42:26 10° NNE
Cosmos 1697 Rocket 2.7 09:33:29 10° SSW 09:39:08 84° WNW 09:43:07 20° NNE
Cosmos 1151 Rocket 2.8 09:35:28 10° S 09:39:46 75° E 09:40:36 56° NNE
Cosmos 2084 3.4 09:36:55 10° NW 09:41:11 80° WSW 09:42:19 47° SSE
SeaSat 1 3.9 09:39:15 10° S 09:43:47 37° WSW 09:48:19 10° NW
YAOGAN 6 3.9 09:40:31 10° SSW 09:43:49 38° W 09:47:07 10° NNW
YAOGAN 1 2.8 09:42:33 10° S 09:46:51 69° W 09:51:10 10° NNW
Cosmos 2112 Rocket 3.8 09:42:32 10° SSW 09:47:42 85° ESE 09:49:24 44° NNE
ATLAS 5 CENTAUR R/B 2.4 09:48:08 10° NNW 09:54:15 82° ENE 09:57:16 36° SE
Cosmos 1680 Rocket 3.7 09:50:38 10° SSW 09:55:48 67° WNW 09:58:20 30° N
Cosmos 1862 3.8 09:53:08 10° NNW 09:57:02 57° W 10:00:56 10° S
ATLAS 5 CENTAUR R/B 3.9 09:52:33 10° SW 09:57:42 31° SSE 10:01:46 26° SE
NOAA 11 4.2 10:02:47 10° S 10:08:11 75° WSW 10:13:37 10° NNW
Lacrosse 4 Rocket 3.3 10:09:45 10° WSW 10:13:09 25° WNW 10:13:46 24° NW
USA 215 4.0 10:27:52 39° N 10:27:52 39° N 10:32:24 10° NNW
Cosmos 1980 Rocket 3.2 10:36:48 10° SW 10:41:36 43° W 10:41:36 43° W
Cosmos 2227 Rocket 4.3 10:45:24 10° NW 10:49:41 22° W 10:53:57 10° SSW
Cosmos 2297 Rocket 4.5 10:46:08 10° NW 10:50:10 20° W 10:54:11 10° SW
